Flag for Chile Weather past 2 weeks in Talcahuano, Chile

Now
52 °F

Partly cloudy.


Feels Like: 51 °F
Forecast: 45 / 54 °F
Wind: 5 mph from Southwest

Location: Concepcion Airport

Current Time: Jul 26, 2014 at 2:11:19 AM

Latest Report: Jul 26, 2014 at 1:00 AM


Visibility: N/A

Pressure: 30.21 "Hg

Humidity: 94%

Dew point: 50 °F

Location of TalcahuanoLocation

Historic Weather in Talcahuano — Graph

°F

Talcahuano temperature yesterday

Maximum temperature yesterday: 52 °F (at 12:00 PM)
Minimum temperature yesterday: 45 °F (at 1:00 AM)
Average temperature yesterday: 49 °F

Past Weeks' High & Low Weather Summary

 TemperatureHumidityPressure
High63 °F (Jul 18, 3:00 PM)100% (Jul 16, 1:00 AM)30.51 "Hg (Jul 16, 1:00 AM)
Low32 °F (Jul 23, 8:00 AM)54% (Jul 24, 12:00 PM)29.74 "Hg (Jul 14, 5:00 AM)
Average50 °F86%30.13 "Hg
* Reported Jul 11 1:00 AM — Jul 26 1:00 AM, Talcahuano, Weather by CustomWeather, © 2014

Note: Actual official high and low records may vary slightly from our data, if they occured in-between our weather recording intervals... More about our weather records

Advertising

Talcahuano weather history for previous 24 hours

 ConditionsComfort  
Time TempWeatherWind HumidityBarometerVisibility
1:00 AM
Jul 26
52 °FPartly cloudy.5 mph94%30.21 "HgN/A
12:00 AM52 °FPassing clouds.3 mph94%30.21 "HgN/A
11:00 PM
Jul 25
50 °FFog.No wind100%30.21 "Hg2 mi
10:00 PM50 °FFog.2 mph100%30.21 "Hg1 mi
9:00 PM52 °FFog.No wind94%30.18 "Hg3 mi
8:00 PM52 °FFog.No wind94%30.18 "Hg3 mi
7:00 PM52 °FMostly cloudy.No wind100%30.21 "HgN/A
6:00 PM52 °FFog.3 mph100%30.18 "Hg4 mi
5:00 PM52 °FDrizzle. Low clouds.3 mph100%30.18 "Hg1 mi
4:00 PM52 °FDrizzle. Partly sunny.8 mph100%30.18 "Hg1 mi
3:00 PM52 °FFog.10 mph100%30.18 "Hg2 mi
2:00 PM52 °FFog.12 mph94%30.18 "Hg1 mi
1:00 PM52 °FFog.12 mph100%30.18 "Hg3 mi
12:00 PM52 °FDrizzle. Low clouds.9 mph94%30.21 "Hg1 mi
11:00 AM50 °FDrizzle. Mostly cloudy.10 mph100%30.21 "Hg1 mi
10:00 AM50 °FDrizzle. Low clouds.10 mph94%30.18 "Hg1 mi
9:00 AM50 °FDrizzle. Low clouds.7 mph94%30.18 "Hg1 mi
8:00 AM48 °FDrizzle. Mostly cloudy.9 mph100%30.18 "Hg1 mi
7:00 AM48 °FDrizzle. Mostly cloudy.8 mph100%30.18 "Hg1 mi
6:00 AM46 °FSprinkles. Mostly cloudy.2 mph100%30.18 "Hg4 mi
5:00 AM46 °FSprinkles. Passing clouds.3 mph93%30.18 "Hg4 mi
4:00 AM46 °FPartly cloudy.No wind93%30.21 "HgN/A
3:00 AM46 °FPartly cloudy.2 mph87%30.21 "HgN/A
2:00 AM45 °FFog.2 mph93%30.24 "Hg4 mi
Weather by CustomWeather, © 2014

See weather overviewHow to use our weather pages